Weather in Rozhdestvenka

Russia / Amur Oblast     50°54′29″N   128°52′23″E
temp.,
°C
wind,
m/s
gust,
m/s
humid.,
%
clouds,
%
prec.,
mm/h
press.,
hPa
HPBL,
m
6 march, sat
sat600:00−25wnw469322 0.0 103583
03:00−27wnw449011 0.0 103554
06:00−28wnw34900 0.0 103639
09:00−24w24930 0.0 1035139
12:00−18w24800 0.0 1034404
15:00−15sw34795 0.0 1031624
18:00−19s239021 0.0 103020
21:00−21s239018 0.0 103020
7 march, sun
sun700:00−21sse349541 0.0 102933
03:00−20sse359471 0.0 102789
06:00−18se3696100 0.1 1025142
09:00−16sse3595100 0.5 1025270
12:00−13sse2287100 0.1 1024481
15:00−11sse0085100 0.3 1024419
18:00−13nnw2394100 0.1 102660
21:00−18nnw229468 0.1 102820
8 march, mon
mon800:00−20w12960 0.0 102820
03:00−20s231000 0.0 102820
06:00−20sse349810 0.0 102654
09:00−15s6119418 0.0 1025295
12:00−10ssw7119091 0.0 1021445
15:00−5s7128893 0.0 1017650
18:00−5s61288100 0.0 1014392
21:00−5ssw61287100 0.0 1012441
9 march, tue
tue900:00−5ssw61196100 0.7 1008443
03:00−4wsw51096100 2.3 1007489
06:00−10nw51094100 0.0 1008238
09:00−11nnw61190100 0.0 1011371
12:00−8nw7118599 0.0 1014648
15:00−4nw8137582 0.0 10161418
18:00−6nw7167798 0.0 1018684
21:00−9nw5148266 0.0 1021345
10 march, wed
wed1000:00−11nw512830 0.0 1023230
03:00−15nw47870 0.0 1025100
06:00−16wnw22860 0.0 102620
09:00−13s348942 0.0 1025102
12:00−7s698387 0.0 1023399
15:00−5s7118794 0.0 1019503
18:00−4s71581100 0.0 1017675
21:00−5ssw61194100 0.3 1017510